Year,Month,Day,Hour,Minute,Value (Times are PST for temperature in C)
2013,05,28,00,00,11.70
2013,05,28,00,01,11.70
2013,05,28,00,02,11.70
2013,05,28,00,03,11.70
2013,05,28,00,04,11.70
2013,05,28,00,05,11.70
2013,05,28,00,06,11.70
2013,05,28,00,07,11.70
2013,05,28,00,08,11.70
2013,05,28,00,09,11.70
2013,05,28,00,10,11.70
2013,05,28,00,11,11.70
2013,05,28,00,12,11.70
2013,05,28,00,13,11.70
2013,05,28,00,14,11.70
2013,05,28,01,38,11.70
2013,05,28,01,39,11.70
2013,05,28,01,40,11.70
2013,05,28,01,41,11.70
2013,05,28,01,42,11.80
2013,05,28,01,43,11.80
2013,05,28,01,44,11.80
2013,05,28,01,45,11.80
2013,05,28,01,46,11.80
2013,05,28,01,47,11.80
2013,05,28,01,48,11.80
2013,05,28,01,49,11.80
2013,05,28,01,50,11.80
2013,05,28,01,51,11.80
2013,05,28,01,52,11.80
2013,05,28,01,53,11.80
2013,05,28,01,54,11.80
2013,05,28,01,55,11.80
2013,05,28,01,56,11.80
2013,05,28,01,57,11.80
2013,05,28,01,58,11.80
2013,05,28,01,59,11.80
2013,05,28,02,00,11.80
2013,05,28,02,01,11.80
2013,05,28,02,02,11.80
2013,05,28,02,03,11.80
2013,05,28,02,04,11.70
2013,05,28,02,05,11.70
2013,05,28,02,06,11.70
2013,05,28,02,07,11.70
2013,05,28,02,08,11.70
2013,05,28,02,09,11.80
2013,05,28,02,10,11.80
2013,05,28,02,11,11.80
2013,05,28,02,12,11.70
2013,05,28,02,13,11.70
2013,05,28,02,14,11.70
2013,05,28,02,15,11.70
2013,05,28,02,16,11.70
2013,05,28,02,17,11.70
2013,05,28,02,18,11.70
2013,05,28,02,19,11.70
2013,05,28,02,20,11.70
2013,05,28,02,21,11.70
2013,05,28,02,22,11.70
2013,05,28,02,23,11.70
2013,05,28,02,24,11.70
2013,05,28,02,25,11.70
2013,05,28,02,26,11.70
2013,05,28,02,27,11.70
2013,05,28,02,28,11.70
2013,05,28,02,29,11.70
2013,05,28,02,30,11.70
2013,05,28,02,31,11.70
2013,05,28,02,32,11.70
2013,05,28,02,33,11.70
2013,05,28,02,34,11.70
2013,05,28,02,35,11.70
2013,05,28,02,36,11.70
2013,05,28,02,37,11.70
2013,05,28,02,38,11.70
2013,05,28,02,39,11.70
2013,05,28,02,40,11.70
2013,05,28,02,41,11.70
2013,05,28,02,42,11.70
2013,05,28,02,43,11.70
2013,05,28,02,44,11.70
2013,05,28,02,45,11.70
2013,05,28,02,46,11.70
2013,05,28,02,47,11.70
2013,05,28,02,48,11.70
2013,05,28,02,49,11.60
2013,05,28,02,50,11.60
2013,05,28,02,51,11.60
2013,05,28,02,52,11.60
2013,05,28,02,53,11.60
2013,05,28,02,54,11.60
2013,05,28,02,55,11.60
2013,05,28,02,56,11.60
2013,05,28,02,57,11.60
2013,05,28,02,58,11.60
2013,05,28,02,59,11.60
2013,05,28,03,00,11.60
2013,05,28,03,01,11.60
2013,05,28,03,02,11.60
2013,05,28,03,03,11.60
2013,05,28,03,04,11.60
2013,05,28,03,05,11.60
2013,05,28,03,06,11.60
2013,05,28,03,07,11.60
2013,05,28,03,08,11.60
2013,05,28,03,09,11.60
2013,05,28,03,10,11.60
2013,05,28,03,11,11.60
2013,05,28,03,12,11.60
2013,05,28,03,13,11.60
2013,05,28,03,14,11.60
2013,05,28,03,15,11.60
2013,05,28,03,16,11.50
2013,05,28,03,17,11.50
2013,05,28,03,18,11.60
2013,05,28,03,19,11.60
2013,05,28,03,20,11.60
2013,05,28,03,21,11.60
2013,05,28,03,22,11.60
2013,05,28,03,23,11.60
2013,05,28,03,24,11.60
2013,05,28,03,25,11.60
2013,05,28,03,26,11.60
2013,05,28,03,27,11.60
2013,05,28,03,28,11.60
2013,05,28,03,29,11.50
2013,05,28,03,30,11.50
2013,05,28,03,31,11.50
2013,05,28,03,32,11.50
2013,05,28,03,33,11.50
2013,05,28,03,34,11.50
2013,05,28,03,35,11.50
2013,05,28,03,36,11.50
2013,05,28,03,37,11.50
2013,05,28,03,38,11.50
2013,05,28,03,39,11.50
2013,05,28,03,40,11.50
2013,05,28,03,41,11.50
2013,05,28,03,42,11.50
2013,05,28,03,43,11.50
2013,05,28,03,44,11.50
2013,05,28,03,45,11.50
2013,05,28,03,46,11.50
2013,05,28,03,47,11.50
2013,05,28,03,48,11.50
2013,05,28,03,49,11.50
2013,05,28,03,50,11.50
2013,05,28,03,51,11.50
2013,05,28,03,52,11.50
2013,05,28,03,53,11.50
2013,05,28,03,54,11.40
2013,05,28,03,55,11.40
2013,05,28,03,56,11.40
2013,05,28,03,57,11.40
2013,05,28,03,58,11.40
2013,05,28,03,59,11.40
2013,05,28,04,00,11.40
2013,05,28,04,01,11.40
2013,05,28,04,02,11.40
2013,05,28,04,03,11.40
2013,05,28,04,04,11.40
2013,05,28,04,05,11.40
2013,05,28,04,06,11.40
2013,05,28,04,07,11.40
2013,05,28,04,08,11.40
2013,05,28,04,09,11.40
2013,05,28,04,10,11.40
2013,05,28,04,11,11.30
2013,05,28,04,12,11.30
2013,05,28,04,13,11.30
2013,05,28,04,14,11.40
2013,05,28,04,15,11.30
2013,05,28,04,16,11.30
2013,05,28,04,17,11.30
2013,05,28,04,18,11.30
2013,05,28,04,19,11.30
2013,05,28,04,20,11.30
2013,05,28,04,21,11.30
2013,05,28,04,22,11.30
2013,05,28,04,23,11.30
2013,05,28,04,24,11.30
2013,05,28,04,25,11.30
2013,05,28,04,26,11.30
2013,05,28,04,27,11.30
2013,05,28,04,28,11.30
2013,05,28,04,29,11.30
2013,05,28,04,30,11.30
2013,05,28,04,31,11.30
2013,05,28,04,32,11.30
2013,05,28,04,33,11.30
2013,05,28,04,34,11.30
2013,05,28,04,35,11.30
2013,05,28,04,36,11.30
2013,05,28,04,37,11.30
2013,05,28,04,38,11.30
2013,05,28,04,39,11.30
2013,05,28,04,40,11.30
2013,05,28,04,41,11.30
2013,05,28,04,42,11.30
2013,05,28,04,43,11.20
2013,05,28,04,44,11.20
2013,05,28,04,45,11.20
2013,05,28,04,46,11.20
2013,05,28,04,47,11.10
2013,05,28,04,48,11.10
2013,05,28,04,49,11.10
2013,05,28,04,50,11.10
2013,05,28,04,51,11.10
2013,05,28,04,52,11.00
2013,05,28,04,53,11.00
2013,05,28,04,54,11.00
2013,05,28,04,55,11.00
2013,05,28,04,56,11.00
2013,05,28,04,57,11.00
2013,05,28,04,58,11.00
2013,05,28,04,59,11.00
2013,05,28,05,00,10.90
2013,05,28,05,01,11.00
2013,05,28,05,02,11.00
2013,05,28,05,03,10.90
2013,05,28,05,04,11.00
2013,05,28,05,05,11.00
2013,05,28,05,06,11.00
2013,05,28,05,07,11.00
2013,05,28,05,08,11.00
2013,05,28,05,09,11.00
2013,05,28,05,10,11.00
2013,05,28,05,11,11.00
2013,05,28,05,12,10.90
2013,05,28,05,13,10.90
2013,05,28,05,14,10.90
2013,05,28,05,15,11.00
2013,05,28,05,16,11.00
2013,05,28,05,17,11.00
2013,05,28,05,18,11.00
2013,05,28,05,19,11.00
2013,05,28,05,20,11.00
2013,05,28,05,21,11.00
2013,05,28,05,22,11.00
2013,05,28,05,23,11.00
2013,05,28,05,24,11.00
2013,05,28,05,25,11.00
2013,05,28,05,26,11.00
2013,05,28,05,27,11.00
2013,05,28,05,28,11.00
2013,05,28,05,29,11.00
2013,05,28,05,30,11.00
2013,05,28,05,31,11.00
2013,05,28,05,32,11.00
2013,05,28,05,33,11.00
2013,05,28,05,34,11.00
2013,05,28,05,35,11.00
2013,05,28,05,36,11.00
2013,05,28,05,37,11.00
2013,05,28,05,38,11.00
2013,05,28,05,39,11.00
2013,05,28,05,40,11.00
2013,05,28,05,41,11.00
2013,05,28,05,42,11.00
2013,05,28,05,43,11.00
2013,05,28,05,44,11.00
2013,05,28,05,45,11.00
2013,05,28,05,46,11.00
2013,05,28,05,47,11.00
2013,05,28,05,48,11.00
2013,05,28,05,49,11.00
2013,05,28,05,50,11.00
2013,05,28,05,51,11.00
2013,05,28,05,52,11.00
2013,05,28,05,53,11.00
2013,05,28,05,54,11.00
2013,05,28,05,55,11.00
2013,05,28,05,56,10.90
2013,05,28,05,57,10.90
2013,05,28,05,58,10.90
2013,05,28,05,59,10.90
2013,05,28,06,00,10.90
2013,05,28,06,01,10.90
2013,05,28,06,02,10.90
2013,05,28,06,03,10.90
2013,05,28,06,04,10.90
2013,05,28,06,05,10.90
2013,05,28,06,06,10.90
2013,05,28,06,07,10.90
2013,05,28,06,08,10.90
2013,05,28,06,09,10.90
2013,05,28,06,10,10.90
2013,05,28,06,11,10.90
2013,05,28,06,12,10.90
2013,05,28,06,13,10.90
2013,05,28,06,14,10.90
2013,05,28,06,15,10.90
2013,05,28,06,16,10.90
2013,05,28,06,17,10.90
2013,05,28,06,18,10.90
2013,05,28,06,19,10.90
2013,05,28,06,20,10.90
2013,05,28,06,21,10.90
2013,05,28,06,22,10.90
2013,05,28,06,23,10.90
2013,05,28,06,24,10.90
2013,05,28,06,25,10.90
2013,05,28,06,26,10.90
2013,05,28,06,27,10.90
2013,05,28,06,28,10.90
2013,05,28,06,29,10.90
2013,05,28,06,30,10.90
2013,05,28,06,31,10.90
2013,05,28,06,32,10.90
2013,05,28,06,33,10.90
2013,05,28,06,34,10.90
2013,05,28,06,35,10.90
2013,05,28,06,36,10.90
2013,05,28,06,37,10.90
2013,05,28,06,38,10.90
2013,05,28,06,39,10.90
2013,05,28,06,40,10.90
2013,05,28,06,41,10.90
2013,05,28,06,42,10.90
2013,05,28,06,43,10.90
2013,05,28,06,44,10.90
2013,05,28,06,45,10.90
2013,05,28,06,46,11.00
2013,05,28,06,47,11.00
2013,05,28,06,48,11.00
2013,05,28,06,49,11.00
2013,05,28,06,50,11.00
2013,05,28,06,51,11.10
2013,05,28,06,52,11.10
2013,05,28,06,53,11.10
2013,05,28,06,54,11.10
2013,05,28,06,55,11.10
2013,05,28,06,56,11.10
2013,05,28,06,57,11.20
2013,05,28,06,58,11.20
2013,05,28,06,59,11.20
2013,05,28,07,00,11.20
2013,05,28,07,01,11.10
2013,05,28,07,02,11.10
2013,05,28,07,03,11.10
2013,05,28,07,04,11.10
2013,05,28,07,05,11.10
2013,05,28,07,06,11.10
2013,05,28,07,07,11.10
2013,05,28,07,08,11.20
2013,05,28,07,09,11.20
2013,05,28,07,10,11.20
2013,05,28,07,11,11.20
2013,05,28,07,12,11.20
2013,05,28,07,13,11.20
2013,05,28,07,14,11.20
2013,05,28,07,15,11.20
2013,05,28,07,16,11.20
2013,05,28,07,17,11.20
2013,05,28,07,18,11.20
2013,05,28,07,19,11.20
2013,05,28,07,20,11.20
2013,05,28,07,21,11.20
2013,05,28,07,22,11.10
2013,05,28,07,23,11.10
2013,05,28,07,24,11.10
2013,05,28,07,25,11.10
2013,05,28,07,26,11.10
2013,05,28,07,27,11.10
2013,05,28,07,28,11.10
2013,05,28,07,29,11.10
2013,05,28,07,30,11.10
2013,05,28,07,31,11.10
2013,05,28,07,32,11.10
2013,05,28,07,33,11.10
2013,05,28,07,34,11.10
2013,05,28,07,35,11.00
2013,05,28,07,36,11.00
2013,05,28,07,37,11.00
2013,05,28,07,38,11.10
2013,05,28,07,39,11.10
2013,05,28,07,40,11.10
2013,05,28,07,41,11.10
2013,05,28,07,42,11.10
2013,05,28,07,43,11.00
2013,05,28,07,44,11.10
2013,05,28,07,45,11.10
2013,05,28,07,46,11.10
2013,05,28,07,47,11.10
2013,05,28,07,48,11.10
2013,05,28,07,49,11.10
2013,05,28,07,50,11.10
2013,05,28,07,51,11.10
2013,05,28,07,52,11.10
2013,05,28,07,53,11.10
2013,05,28,07,54,11.10
2013,05,28,07,55,11.10
2013,05,28,07,56,11.10
2013,05,28,07,57,11.10
2013,05,28,07,58,11.00
2013,05,28,07,59,11.00
2013,05,28,08,00,11.00
2013,05,28,08,01,11.00
2013,05,28,08,02,11.00
2013,05,28,08,03,11.00
2013,05,28,08,04,11.00
2013,05,28,08,05,11.10
2013,05,28,08,06,11.10
2013,05,28,08,07,11.10
2013,05,28,08,08,11.10
2013,05,28,08,09,11.10
2013,05,28,08,10,11.10
2013,05,28,08,11,11.10
2013,05,28,08,12,11.10
2013,05,28,08,13,11.10
2013,05,28,08,14,11.10
2013,05,28,08,15,11.10
2013,05,28,08,16,11.20
2013,05,28,08,17,11.20
2013,05,28,08,18,11.20
2013,05,28,08,19,11.20
2013,05,28,08,20,11.20
2013,05,28,08,21,11.20
2013,05,28,08,22,11.20
2013,05,28,08,23,11.30
2013,05,28,08,24,11.30
2013,05,28,08,25,11.30
2013,05,28,08,26,11.30
2013,05,28,08,27,11.30
2013,05,28,08,28,11.30
2013,05,28,08,29,11.30
2013,05,28,08,30,11.30
2013,05,28,08,31,11.30
2013,05,28,08,32,11.30
2013,05,28,08,33,11.40
2013,05,28,08,34,11.40
2013,05,28,08,35,11.40
2013,05,28,08,36,11.40
2013,05,28,08,37,11.40
2013,05,28,08,38,11.40
2013,05,28,08,39,11.40
2013,05,28,08,40,11.40
2013,05,28,08,41,11.30
2013,05,28,08,42,11.40
2013,05,28,08,43,11.40
2013,05,28,08,44,11.30
2013,05,28,08,45,11.30
2013,05,28,08,46,11.40
2013,05,28,08,47,11.40
2013,05,28,08,48,11.40
2013,05,28,08,49,11.40
2013,05,28,08,50,11.40
2013,05,28,08,51,11.30
2013,05,28,08,52,11.30
2013,05,28,08,53,11.30
2013,05,28,08,54,11.40
2013,05,28,08,55,11.40
2013,05,28,08,56,11.40
2013,05,28,08,57,11.40
2013,05,28,08,58,11.40
2013,05,28,08,59,11.40
2013,05,28,09,00,11.40
2013,05,28,09,01,11.40
2013,05,28,09,02,11.30
2013,05,28,09,03,11.30
2013,05,28,09,04,11.30
2013,05,28,09,05,11.30
2013,05,28,09,06,11.30
2013,05,28,09,07,11.30
2013,05,28,09,08,11.30
2013,05,28,09,09,11.30
2013,05,28,09,10,11.30
2013,05,28,09,11,11.30
2013,05,28,09,12,11.30
2013,05,28,09,13,11.30
2013,05,28,09,14,11.30
2013,05,28,09,15,11.30
2013,05,28,09,16,11.30
2013,05,28,09,17,11.30
2013,05,28,09,18,11.30
2013,05,28,09,19,11.30
2013,05,28,09,20,11.30
2013,05,28,09,21,11.30
2013,05,28,09,22,11.40
2013,05,28,09,23,11.30
2013,05,28,09,24,11.40
2013,05,28,09,25,11.40
2013,05,28,09,26,11.40
2013,05,28,09,27,11.40
2013,05,28,09,28,11.30
2013,05,28,09,29,11.30
2013,05,28,09,30,11.30
2013,05,28,09,31,11.30
2013,05,28,09,32,11.30
2013,05,28,09,33,11.30
2013,05,28,09,34,11.30
2013,05,28,09,35,11.30
2013,05,28,09,36,11.30
2013,05,28,09,37,11.30
2013,05,28,09,38,11.30
2013,05,28,09,39,11.30
2013,05,28,09,40,11.30
2013,05,28,09,41,11.30
2013,05,28,09,42,11.30
2013,05,28,09,43,11.30
2013,05,28,09,44,11.30
2013,05,28,09,45,11.30
2013,05,28,09,46,11.30
2013,05,28,09,47,11.30
2013,05,28,09,48,11.30
2013,05,28,09,49,11.30
2013,05,28,09,50,11.30
2013,05,28,09,51,11.30
2013,05,28,09,52,11.30
2013,05,28,09,53,11.30
2013,05,28,09,54,11.30
2013,05,28,09,55,11.30
2013,05,28,09,56,11.30
2013,05,28,09,57,11.30
2013,05,28,09,58,11.30
2013,05,28,09,59,11.30
2013,05,28,10,00,11.30
2013,05,28,10,01,11.30
2013,05,28,10,02,11.30
2013,05,28,10,03,11.30
2013,05,28,10,04,11.30
2013,05,28,10,05,11.30
2013,05,28,10,06,11.30
2013,05,28,10,07,11.30
2013,05,28,10,08,11.30
2013,05,28,10,09,11.30
2013,05,28,10,10,11.30
2013,05,28,10,11,11.30
2013,05,28,10,12,11.30
2013,05,28,10,13,11.30
2013,05,28,10,14,11.20
2013,05,28,10,15,11.20
2013,05,28,10,16,11.20
2013,05,28,10,17,11.30
2013,05,28,10,18,11.20
2013,05,28,10,19,11.20
2013,05,28,10,20,11.20
2013,05,28,10,21,11.20
2013,05,28,10,22,11.20
2013,05,28,10,23,11.20
2013,05,28,10,24,11.20
2013,05,28,10,25,11.20
2013,05,28,10,26,11.20
2013,05,28,10,27,11.20
2013,05,28,10,28,11.20
2013,05,28,10,29,11.20
2013,05,28,10,30,11.20
2013,05,28,10,31,11.20
2013,05,28,10,32,11.20
2013,05,28,10,33,11.20
2013,05,28,10,34,11.30
2013,05,28,10,35,11.30
2013,05,28,10,36,11.30
2013,05,28,10,37,11.30
2013,05,28,10,38,11.20
2013,05,28,10,39,11.20
2013,05,28,10,40,11.20
2013,05,28,10,41,11.20
2013,05,28,10,42,11.20
2013,05,28,10,43,11.20
2013,05,28,10,44,11.20
2013,05,28,10,45,11.20
2013,05,28,10,46,11.30
2013,05,28,10,47,11.30
2013,05,28,10,48,11.30
2013,05,28,10,49,11.30
2013,05,28,10,50,11.30
2013,05,28,10,51,11.30
2013,05,28,10,52,11.30
2013,05,28,10,53,11.20
2013,05,28,10,54,11.20
2013,05,28,10,55,11.20
2013,05,28,10,56,11.20
2013,05,28,10,57,11.20
2013,05,28,10,58,11.20
2013,05,28,10,59,11.20
2013,05,28,11,00,11.20
2013,05,28,11,01,11.10
2013,05,28,11,02,11.20
2013,05,28,11,03,11.20
2013,05,28,11,04,11.20
2013,05,28,11,05,11.20
2013,05,28,11,06,11.20
2013,05,28,11,07,11.20
2013,05,28,11,08,11.20
2013,05,28,11,09,11.20
2013,05,28,11,10,11.20
2013,05,28,11,11,11.10
2013,05,28,11,12,11.10
2013,05,28,11,13,11.10
2013,05,28,11,14,11.10
2013,05,28,11,15,11.10
2013,05,28,11,16,11.10
2013,05,28,11,17,11.10
2013,05,28,11,18,11.10
2013,05,28,11,19,11.10
2013,05,28,11,20,11.10
2013,05,28,11,21,11.10
2013,05,28,11,22,11.10
2013,05,28,11,23,11.10
2013,05,28,11,24,11.10
2013,05,28,11,25,11.10
2013,05,28,11,26,11.10
2013,05,28,11,27,11.10
2013,05,28,11,28,11.10
2013,05,28,11,29,11.10
2013,05,28,11,30,11.10
2013,05,28,11,31,11.10
2013,05,28,11,32,11.10
2013,05,28,11,33,11.10
2013,05,28,11,34,11.10
2013,05,28,11,35,11.10
2013,05,28,11,36,11.10
2013,05,28,11,37,11.10
2013,05,28,11,38,11.10
2013,05,28,11,39,11.10
2013,05,28,11,40,11.20
2013,05,28,11,41,11.20
2013,05,28,11,42,11.20
2013,05,28,11,43,11.20
2013,05,28,11,44,11.20
2013,05,28,11,45,11.20
2013,05,28,11,46,11.20
2013,05,28,11,47,11.30
2013,05,28,11,48,11.30
2013,05,28,11,49,11.30
2013,05,28,11,50,11.20
2013,05,28,11,51,11.20
2013,05,28,11,52,11.20
2013,05,28,11,53,11.20
2013,05,28,11,54,11.20
2013,05,28,11,55,11.20
2013,05,28,11,56,11.20
2013,05,28,11,57,11.20
2013,05,28,11,58,11.20
2013,05,28,11,59,11.20
2013,05,28,12,00,11.20
2013,05,28,12,01,11.20
2013,05,28,12,02,11.20
2013,05,28,12,03,11.20
2013,05,28,12,04,11.20
2013,05,28,12,05,11.20
2013,05,28,12,06,11.30
2013,05,28,12,07,11.30
2013,05,28,12,08,11.30
2013,05,28,12,09,11.30
2013,05,28,12,10,11.30
2013,05,28,12,11,11.30
2013,05,28,12,12,11.30
2013,05,28,12,13,11.30
2013,05,28,12,14,11.30
2013,05,28,12,15,11.30
2013,05,28,12,16,11.30
2013,05,28,12,17,11.30
2013,05,28,12,18,11.30
2013,05,28,12,19,11.30
2013,05,28,12,20,11.30
2013,05,28,12,21,11.30
2013,05,28,12,22,11.20
2013,05,28,12,23,11.20
2013,05,28,12,24,11.30
2013,05,28,12,25,11.20
2013,05,28,12,26,11.20
2013,05,28,12,27,11.20
2013,05,28,12,28,11.20
2013,05,28,12,29,11.20
2013,05,28,12,30,11.20
2013,05,28,12,31,11.20
2013,05,28,12,32,11.30
2013,05,28,12,33,11.30
2013,05,28,12,34,11.30
2013,05,28,12,35,11.20
2013,05,28,12,36,11.20
2013,05,28,12,37,11.20
2013,05,28,12,38,11.20
2013,05,28,12,39,11.20
2013,05,28,12,40,11.20
2013,05,28,12,41,11.20
2013,05,28,12,42,11.30
2013,05,28,12,43,11.30
2013,05,28,12,44,11.30
2013,05,28,12,45,11.30
2013,05,28,12,46,11.20
2013,05,28,12,47,11.30
2013,05,28,12,48,11.30
2013,05,28,12,49,11.20
2013,05,28,12,50,11.20
2013,05,28,12,51,11.20
2013,05,28,12,52,11.30
2013,05,28,12,53,11.30
2013,05,28,12,54,11.30
2013,05,28,12,55,11.30
2013,05,28,12,56,11.30
2013,05,28,12,57,11.30
2013,05,28,12,58,11.20
2013,05,28,12,59,11.20
2013,05,28,13,00,11.30
2013,05,28,13,01,11.20
2013,05,28,13,02,11.20
2013,05,28,13,03,11.20
2013,05,28,13,04,11.20
2013,05,28,13,05,11.20
2013,05,28,13,06,11.20
2013,05,28,13,07,11.20
2013,05,28,13,08,11.20
2013,05,28,13,09,11.20
2013,05,28,13,10,11.20
2013,05,28,13,11,11.20
2013,05,28,13,12,11.20
2013,05,28,13,13,11.20
2013,05,28,13,14,11.20
2013,05,28,13,15,11.20
2013,05,28,13,16,11.20
2013,05,28,13,17,11.20
2013,05,28,13,18,11.20
2013,05,28,13,19,11.20
2013,05,28,13,20,11.10
2013,05,28,13,21,11.20
2013,05,28,13,22,11.10
2013,05,28,13,23,11.10
2013,05,28,13,24,11.10
2013,05,28,13,25,11.10
2013,05,28,13,26,11.10
2013,05,28,13,27,11.10
2013,05,28,13,28,11.10
2013,05,28,13,29,11.10
2013,05,28,13,30,11.10
2013,05,28,13,31,11.10
2013,05,28,13,32,11.10
2013,05,28,13,33,11.00
2013,05,28,13,34,11.00
2013,05,28,13,35,11.00
2013,05,28,13,36,11.00
2013,05,28,13,37,10.90
2013,05,28,13,38,10.90
2013,05,28,13,39,10.90
2013,05,28,13,40,10.90
2013,05,28,13,41,10.90
2013,05,28,13,42,10.90
2013,05,28,13,43,10.90
2013,05,28,13,44,10.90
2013,05,28,13,45,10.90
2013,05,28,13,46,10.90
2013,05,28,13,47,10.90
2013,05,28,13,48,11.00
2013,05,28,13,49,11.00
2013,05,28,13,50,11.00
2013,05,28,13,51,11.00
2013,05,28,13,52,11.00
2013,05,28,13,53,11.00
2013,05,28,13,54,11.00
2013,05,28,13,55,11.10
2013,05,28,13,56,11.10
2013,05,28,13,57,11.10
2013,05,28,13,58,11.10
2013,05,28,13,59,11.20
2013,05,28,14,00,11.20
2013,05,28,14,01,11.20
2013,05,28,14,02,11.20
2013,05,28,14,03,11.20
2013,05,28,14,04,11.30
2013,05,28,14,05,11.20
2013,05,28,14,06,11.20
2013,05,28,14,07,11.20
2013,05,28,14,08,11.20
2013,05,28,14,09,11.20
2013,05,28,14,10,11.20
2013,05,28,14,11,11.20
2013,05,28,14,12,11.20
2013,05,28,14,13,11.20
2013,05,28,14,14,11.20
2013,05,28,14,15,11.20
2013,05,28,14,16,11.30
2013,05,28,14,17,11.30
2013,05,28,14,18,11.30
2013,05,28,14,19,11.30
2013,05,28,14,20,11.30
2013,05,28,14,21,11.30
2013,05,28,14,22,11.30
2013,05,28,14,23,11.30
2013,05,28,14,24,11.40
2013,05,28,14,25,11.40
2013,05,28,14,26,11.40
2013,05,28,14,27,11.40
2013,05,28,14,28,11.40
2013,05,28,14,29,11.50
2013,05,28,14,30,11.60
2013,05,28,14,31,11.60
2013,05,28,14,32,11.60
2013,05,28,14,33,11.60
2013,05,28,14,34,11.60
2013,05,28,14,35,11.60
2013,05,28,14,36,11.70
2013,05,28,14,37,11.70
2013,05,28,14,38,11.80
2013,05,28,14,39,11.90
2013,05,28,14,40,11.90
2013,05,28,14,41,11.90
2013,05,28,14,42,11.90
2013,05,28,14,43,11.90
2013,05,28,14,44,11.90
2013,05,28,14,45,11.90
2013,05,28,14,46,11.90
2013,05,28,14,47,11.80
2013,05,28,14,48,11.80
2013,05,28,14,49,11.80
2013,05,28,14,50,11.80
2013,05,28,14,51,11.90
2013,05,28,14,52,11.90
2013,05,28,14,53,11.90
2013,05,28,14,54,11.80
2013,05,28,14,55,11.80
2013,05,28,14,56,11.80
2013,05,28,14,57,11.80
2013,05,28,14,58,11.80
2013,05,28,14,59,11.70
2013,05,28,15,00,11.80
2013,05,28,15,01,11.80
2013,05,28,15,02,11.70
2013,05,28,15,03,11.70
2013,05,28,15,04,11.70
2013,05,28,15,05,11.70
2013,05,28,15,06,11.60
2013,05,28,15,07,11.60
2013,05,28,15,08,11.60
2013,05,28,15,09,11.60
2013,05,28,15,10,11.60
2013,05,28,15,11,11.60
2013,05,28,15,12,11.70
2013,05,28,15,13,11.70
2013,05,28,15,14,11.70
2013,05,28,15,15,11.70
2013,05,28,15,16,11.70
2013,05,28,15,17,11.70
2013,05,28,15,18,11.70
2013,05,28,15,19,11.70
2013,05,28,15,20,11.70
2013,05,28,15,21,11.70
2013,05,28,15,22,11.70
2013,05,28,15,23,11.70
2013,05,28,15,24,11.80
2013,05,28,15,25,11.80
2013,05,28,15,26,11.80
2013,05,28,15,27,11.90
2013,05,28,15,28,11.90
2013,05,28,15,29,11.90
2013,05,28,15,30,12.00
2013,05,28,15,31,12.00
2013,05,28,15,32,12.00
2013,05,28,15,33,11.90
2013,05,28,15,34,11.90
2013,05,28,15,35,11.90
2013,05,28,15,36,11.90
2013,05,28,15,37,11.90
2013,05,28,15,38,11.90
2013,05,28,15,39,11.90
2013,05,28,15,40,11.90
2013,05,28,15,41,11.90
2013,05,28,15,42,11.80
2013,05,28,15,43,11.80
2013,05,28,15,44,11.80
2013,05,28,15,45,11.80
2013,05,28,15,46,11.80
2013,05,28,15,47,11.80
2013,05,28,15,48,11.70
2013,05,28,15,49,11.70
2013,05,28,15,50,11.70
2013,05,28,15,51,11.70
2013,05,28,15,52,11.70
2013,05,28,15,53,11.70
2013,05,28,15,54,11.70
2013,05,28,15,55,11.70
2013,05,28,15,56,11.70
2013,05,28,15,57,11.70
2013,05,28,15,58,11.70
2013,05,28,15,59,11.70
2013,05,28,16,00,11.70
2013,05,28,16,01,11.70
2013,05,28,16,02,11.70
2013,05,28,16,03,11.70
2013,05,28,16,04,11.70
2013,05,28,16,05,11.70
2013,05,28,16,06,11.70
2013,05,28,16,07,11.70
2013,05,28,16,08,11.70
2013,05,28,16,09,11.70
2013,05,28,16,10,11.70
2013,05,28,16,11,11.70
2013,05,28,16,12,11.70
2013,05,28,16,13,11.70
2013,05,28,16,14,11.70
2013,05,28,16,15,11.70
2013,05,28,16,16,11.70
2013,05,28,16,17,11.80
2013,05,28,16,18,11.70
2013,05,28,16,19,11.70
2013,05,28,16,20,11.70
2013,05,28,16,21,11.80
2013,05,28,16,22,11.80
2013,05,28,16,23,11.80
2013,05,28,16,24,11.80
2013,05,28,16,25,11.80
2013,05,28,16,26,11.80
2013,05,28,16,27,11.80
2013,05,28,16,28,11.80
2013,05,28,16,29,11.80
2013,05,28,16,30,11.80
2013,05,28,16,31,11.80
2013,05,28,16,32,11.80
2013,05,28,16,33,11.80
2013,05,28,16,34,11.80
2013,05,28,16,35,11.80
2013,05,28,16,36,11.80
2013,05,28,16,37,11.80
2013,05,28,16,38,11.80
2013,05,28,16,39,11.80
2013,05,28,16,40,11.80
2013,05,28,16,41,11.80
2013,05,28,16,42,11.80
2013,05,28,16,43,11.80
2013,05,28,16,44,11.80
2013,05,28,16,45,11.80
2013,05,28,16,46,11.90
2013,05,28,16,47,11.90
2013,05,28,16,48,11.90
2013,05,28,16,49,11.90
2013,05,28,16,50,11.90
2013,05,28,16,51,11.90
2013,05,28,16,52,12.00
2013,05,28,16,53,12.00
2013,05,28,16,54,12.00
2013,05,28,16,55,12.00
2013,05,28,16,56,12.00
2013,05,28,16,57,12.10
2013,05,28,16,58,12.10
2013,05,28,16,59,12.10
2013,05,28,17,00,12.10
2013,05,28,17,01,12.10
2013,05,28,17,02,12.10
2013,05,28,17,03,12.10
2013,05,28,17,04,12.10
2013,05,28,17,05,12.10
2013,05,28,17,06,12.10
2013,05,28,17,07,12.10
2013,05,28,17,08,12.20
2013,05,28,17,09,12.20
2013,05,28,17,10,12.20
2013,05,28,17,11,12.20
2013,05,28,17,12,12.20
2013,05,28,17,13,12.20
2013,05,28,17,14,12.20
2013,05,28,17,15,12.20
2013,05,28,17,16,12.30
2013,05,28,17,17,12.30
2013,05,28,17,18,12.20
2013,05,28,17,19,12.20
2013,05,28,17,20,12.20
2013,05,28,17,21,12.20
2013,05,28,17,22,12.20
2013,05,28,17,23,12.20
2013,05,28,17,24,12.10
2013,05,28,17,25,12.10
2013,05,28,17,26,12.10
2013,05,28,17,27,12.10
2013,05,28,17,28,12.10
2013,05,28,17,29,12.10
2013,05,28,17,30,12.10
2013,05,28,17,31,12.10
2013,05,28,17,32,12.10
2013,05,28,17,33,12.10
2013,05,28,17,34,12.10
2013,05,28,17,35,12.10
2013,05,28,17,36,12.10
2013,05,28,17,37,12.10
2013,05,28,17,38,12.20
2013,05,28,17,39,12.20
2013,05,28,17,40,12.20
2013,05,28,17,41,12.20
2013,05,28,17,42,12.20
2013,05,28,17,43,12.20
2013,05,28,17,44,12.20
2013,05,28,17,45,12.30
2013,05,28,17,46,12.30
2013,05,28,17,47,12.30
2013,05,28,17,48,12.30
2013,05,28,17,49,12.30
2013,05,28,17,50,12.40
2013,05,28,17,51,12.40
2013,05,28,17,52,12.40
2013,05,28,17,53,12.40
2013,05,28,17,54,12.40
2013,05,28,17,55,12.40
2013,05,28,17,56,12.40
2013,05,28,17,57,12.40
2013,05,28,17,58,12.40
2013,05,28,17,59,12.40
2013,05,28,18,00,12.30
2013,05,28,18,01,12.30
2013,05,28,18,02,12.40
2013,05,28,18,03,12.40
2013,05,28,18,04,12.30
2013,05,28,18,05,12.30
2013,05,28,18,06,12.30
2013,05,28,18,07,12.20
2013,05,28,18,08,12.20
2013,05,28,18,09,12.20
2013,05,28,18,10,12.20
2013,05,28,18,11,12.20
2013,05,28,18,12,12.20
2013,05,28,18,13,12.10
2013,05,28,18,14,12.10
2013,05,28,18,15,12.10
2013,05,28,18,16,12.10
2013,05,28,18,17,12.10
2013,05,28,18,18,12.10
2013,05,28,18,19,12.10
2013,05,28,18,20,12.00
2013,05,28,18,21,12.00
2013,05,28,18,22,12.00
2013,05,28,18,23,12.00
2013,05,28,18,24,12.00
2013,05,28,18,25,12.00
2013,05,28,18,26,12.00
2013,05,28,18,27,12.00
2013,05,28,18,28,12.00
2013,05,28,18,29,12.00
2013,05,28,18,30,12.00
2013,05,28,18,31,12.00
2013,05,28,18,32,12.00
2013,05,28,18,33,12.00
2013,05,28,18,34,12.00
2013,05,28,18,35,12.00
2013,05,28,18,36,12.00
2013,05,28,18,37,12.00
2013,05,28,18,38,12.00
2013,05,28,18,39,12.00
2013,05,28,18,40,12.00
2013,05,28,18,41,12.00
2013,05,28,18,42,12.00